This demonstration page uses our WeatherBlox Daily Observations layout. Learn more.

Left ArrowRight Arrow

Hourly Observations for June 29, 2022

Temp ( °F °C ) Dew Point ( °F °C ) Humidity (%) Winds ( mph kmh ) Pressure ( in mb ) Visibility ( mi km ) Precip ( " mm )
12:22 am 00:22 Mostly Cloudy 74 23.3 71 21.7 91 91 E 3 6 30.17 1022 10 16 0.00 0.00
12:45 am 00:45 Partly Cloudy 73 22.8 70 21.1 90 90 VRB 3 6 30.17 1022 10 16 0.00 0.00
12:53 am 00:53 Mostly Clear 73 22.8 70 21.1 90 90 Calm 30.17 1022 10 16 0.00 0.00
1:53 am 01:53 Clear 73 22.8 70 21.1 90 90 Calm 30.16 1021 10 16 0.00 0.00
2:53 am 02:53 Mostly Clear 72 22.2 70 21.1 94 94 ENE 3 6 30.15 1021 10 16 0.00 0.00
3:19 am 03:19 Mostly Cloudy 72 22.2 70 21.1 94 94 E 3 6 30.15 1021 10 16 0.00 0.00
3:27 am 03:27 Partly Cloudy 72 22.2 70 21.1 94 94 E 3 6 30.15 1021 10 16 0.00 0.00
3:49 am 03:49 Mostly Cloudy 72 22 70 21 94 94 E 3 6 30.15 1021 10 16 0.00 0.00
3:53 am 03:53 Mostly Cloudy 72 22.2 70 21.1 94 94 Calm 30.16 1021 10 16 0.00 0.00
4:16 am 04:16 Cloudy 72 22.2 70 21.1 94 94 NE 3 6 30.15 1021 10 16 0.00 0.00
4:53 am 04:53 Cloudy 72 22.2 70 21.1 94 94 ENE 3 6 30.15 1021 10 16 0.00 0.00
5:01 am 05:01 Cloudy 72 22.2 70 21.1 94 94 ENE 3 6 30.15 1021 10 16 0.00 0.00
5:25 am 05:25 Cloudy 73 22.8 70 21.1 90 90 ENE 5 7 30.15 1021 10 16 0.00 0.00
5:44 am 05:44 Cloudy 73 22.8 70 21.1 90 90 E 5 7 30.16 1021 10 16 0.00 0.00
5:53 am 05:53 Cloudy 73 22.8 70 21.1 90 90 E 5 7 30.16 1021 10 16 0.00 0.00
6:53 am 06:53 Cloudy 73 22.8 70 21.1 90 90 E 5 7 30.17 1022 10 16 0.00 0.00
7:53 am 07:53 Cloudy 73 22.8 70 21.1 90 90 E 3 6 30.19 1022 10 16 0.00 0.00
8:53 am 08:53 Cloudy 74 23.3 70 21.1 88 88 E 6 9 30.20 1023 10 16 0.00 0.00
9:53 am 09:53 Cloudy 76 24.4 71 21.7 85 85 Calm 30.21 1023 10 16 0.00 0.00
10:53 am 10:53 Cloudy 77 25 71 21.7 82 82 VRB 5 7 30.22 1023 10 16 0.00 0.00
11:53 am 11:53 Cloudy 78 25.6 71 21.7 79 79 Calm 30.23 1024 10 16 0.00 0.00
12:45 pm 12:45 Cloudy 77 25 73 22.8 88 88 S 3 6 30.21 1023 10 16 0.00 0.00
12:53 pm 12:53 Cloudy 79 26.1 73 22.8 82 82 Calm 30.22 1023 10 16 0.00 0.00
1:53 pm 13:53 Cloudy 82 27.8 72 22.2 72 72 S 3 6 30.20 1023 10 16 0.00 0.00
2:53 pm 14:53 Partly Cloudy 86 30 70 21.1 59 59 VRB 3 6 30.16 1022 10 16 0.00 0.00
3:53 pm 15:53 Mostly Sunny 87 30.6 70 21.1 57 57 VRB 3 6 30.15 1021 10 16 0.00 0.00
4:53 pm 16:53 Partly Cloudy 88 31.1 69 20.6 54 54 undefined N/A 30.14 1021 10 16 0.00 0.00
5:53 pm 17:53 Partly Cloudy 87 30.6 69 20.6 55 55 S 5 7 30.13 1020 10 16 0.00 0.00
6:43 pm 18:43 Mostly Cloudy with Thunderstorms 81 27.2 69 20.6 67 67 ENE 14 22 30.12 1020 10 16 0.00 0.00
6:53 pm 18:53 Cloudy with Thunderstorms 80 26.7 70 21.1 71 71 ENE 10 17 30.14 1021 10 16 0.00 0.00
7:02 pm 19:02 Cloudy with Nearby Thunderstorms 78 25.6 72 22.2 82 82 ENE 14 22 30.14 1021 7 11 0.05 1.27
7:15 pm 19:15 Cloudy with Strong Thunderstorms 76 24.4 72 22.2 88 88 E 8 13 30.16 1021 3 4 0.17 4.32
7:40 pm 19:40 Cloudy with Thunderstorms 74 23.3 69 20.6 85 85 E 8 13 30.16 1021 8 13 0.33 8.38
7:53 pm 19:53 Cloudy with Thunderstorms 73 22.8 70 21.1 90 90 N 3 6 30.18 1022 8 13 0.35 8.89
8:07 pm 20:07 Cloudy with Nearby Thunderstorms 74 23.3 71 21.7 91 91 E 5 7 30.17 1022 6 10 0.02 0.51
8:44 pm 20:44 Mostly Cloudy 73 22.8 71 21.7 94 94 WSW 3 6 30.18 1022 10 16 0.03 0.76
8:53 pm 20:53 Mostly Cloudy with Nearby Thunderstorms 74 23.3 71 21.7 91 91 NW 5 7 30.21 1023 10 16 0.03 0.76
9:10 pm 21:10 Mostly Cloudy 73 22.8 71 21.7 94 94 WSW 5 7 30.19 1022 10 16 0.00 0.00
9:53 pm 21:53 Partly Cloudy 73 22.8 71 21.7 94 94 NNW 3 6 30.20 1023 10 16 0.00 0.00
10:09 pm 22:09 Mostly Cloudy with Nearby Thunderstorms 73 22.8 72 22.2 96 96 Calm 30.20 1023 10 16 0.00 0.00
10:26 pm 22:26 Mostly Cloudy 74 23.3 71 21.7 91 91 Calm 30.21 1023 10 16 0.00 0.00
10:37 pm 22:37 Partly Cloudy 73 22.8 71 21.7 94 94 Calm 30.21 1023 10 16 0.00 0.00
10:53 pm 22:53 Clear 73 22.8 72 22.2 96 96 Calm 30.22 1023 10 16 0.00 0.00
11:53 pm 23:53 Clear 73 22.8 72 22.2 96 96 W 3 6 30.20 1023 10 16 0.00 0.00

Powered by AerisWeather